Mount Shasta, CA

2:55 PM PDT on April 21, 2018 (GMT -0700)
Mount Shasta

Weather History for KMHS - October, 2012

Change the Weather History Date:

Wednesday, October 24, 2012

  Actual Average Record
Temperature  
Mean Temperature 40 °F 48 °F  
Max Temperature 47 °F 62 °F 84 °F (1959)
Min Temperature 32 °F 35 °F 23 °F (1956)
Degree Days  
Heating Degree Days 25 17  
Month to date heating degree days 247 300  
Since 1 July heating degree days 292 537  
Cooling Degree Days 0 0  
Month to date cooling degree days 4 0  
Year to date cooling degree days 392 287  
Moisture  
Dew Point 34 °F    
Average Humidity 86    
Maximum Humidity 92    
Minimum Humidity 70    
Precipitation  
Precipitation 0.02 in 0.10 in 2.54 in (1979)
Month to date precipitation 0.71 1.45  
Year to date precipitation 25.27 29.45  
Sea Level Pressure  
Sea Level Pressure 30.04 in    
Wind  
Wind Speed 1 mph (ENE)    
Max Wind Speed 7 mph    
Max Gust Speed 15 mph    
Visibility 9 miles    
Events Rain    
T = Trace of Precipitation, MM = Missing Value Source: NWS Daily Summary

Daily Weather History Graph

Daily Weather History Graph

Search for Another Location

Airport or City:

Astronomy

Oct. 24, 2012 Rise Set
Actual Time 7:31 AM PDT 6:14 PM PDT
Civil Twilight 7:03 AM PDT 6:42 PM PDT
Nautical Twilight 6:31 AM PDT 7:14 PM PDT
Astronomical Twilight 5:59 AM PDT 7:46 PM PDT
Moon 3:35 PM PDT (10/24) 2:29 AM PDT (10/24)
Length of Visible Light 11h 38m
Length of Day
10h 42m
Waxing Gibbous, 77% of the Moon is Illuminated
Oct 24
Waxing Gibbous
Oct 29
Full
Nov 6
Last Quarter
Nov 13
New
Nov 20
First Quarter

Hourly Weather History & Observations

Time (PDT) Temp. Windchill Dew Point Humidity Pressure Visibility Wind Dir Wind Speed Gust Speed Precip Events Conditions
12:26 AM 35.6 °F 32.8 °F 33.8 °F 93% 29.90 in 10.0 mi Variable 3.5 mph - 0.01 in   Overcast
12:52 AM 35.6 °F 31.7 °F 32.0 °F 87% 29.90 in 10.0 mi Variable 4.6 mph - 0.02 in Rain Light Rain
12:56 AM 36.0 °F 33.3 °F 32.0 °F 86% 29.98 in 10.0 mi Variable 3.5 mph - 0.02 in Rain Light Rain
1:11 AM 35.6 °F - 32.0 °F 87% 29.90 in 10.0 mi Calm Calm - 0.00 in   Overcast
1:56 AM 36.0 °F - 32.0 °F 86% 29.98 in 10.0 mi Calm Calm - 0.00 in Rain Light Rain
2:31 AM 35.6 °F - 33.8 °F 93% 29.91 in 10.0 mi Calm Calm - 0.01 in   Overcast
2:56 AM 36.0 °F - 33.1 °F 89% 29.98 in 9.0 mi Calm Calm - 0.02 in Rain Light Rain
3:03 AM 35.6 °F - 33.8 °F 93% 29.91 in 9.0 mi Calm Calm - 0.00 in Rain Light Rain
3:24 AM 35.6 °F - 33.8 °F 93% 29.90 in 10.0 mi Calm Calm - 0.00 in   Overcast
3:47 AM 35.6 °F - 32.0 °F 87% 29.90 in 10.0 mi Calm Calm - 0.00 in   Overcast
3:56 AM 35.1 °F - 32.0 °F 89% 29.98 in 10.0 mi Calm Calm - 0.00 in   Overcast
4:05 AM 35.6 °F - 32.0 °F 87% 29.90 in 10.0 mi Calm Calm - N/A   Overcast
4:14 AM 35.6 °F - 32.0 °F 87% 29.90 in 10.0 mi Calm Calm - N/A   Mostly Cloudy
4:30 AM 35.6 °F - 32.0 °F 87% 29.90 in 10.0 mi Calm Calm - N/A   Mostly Cloudy
4:38 AM 35.6 °F 30.7 °F 32.0 °F 87% 29.91 in 10.0 mi Variable 5.8 mph - N/A   Overcast
4:45 AM 35.6 °F 32.8 °F 33.8 °F 93% 29.91 in 10.0 mi Variable 3.5 mph - N/A   Overcast
4:56 AM 36.0 °F 33.3 °F 33.1 °F 89% 29.99 in 10.0 mi Variable 3.5 mph - N/A   Overcast
5:04 AM 35.6 °F 31.7 °F 33.8 °F 93% 29.91 in 10.0 mi Variable 4.6 mph - N/A   Overcast
5:56 AM 35.1 °F - 32.0 °F 89% 30.01 in 10.0 mi Calm Calm - N/A   Overcast
6:56 AM 35.1 °F - 33.1 °F 92% 30.02 in 10.0 mi Calm Calm - N/A   Overcast
7:54 AM 35.6 °F - 33.8 °F 93% 29.95 in 10.0 mi Calm Calm - N/A   Overcast
7:56 AM 36.0 °F - 33.1 °F 89% 30.03 in 10.0 mi Calm Calm - N/A   Overcast
8:56 AM 37.0 °F - 34.0 °F 89% 30.06 in 10.0 mi Calm Calm - N/A   Overcast
9:11 AM 37.4 °F - 33.8 °F 87% 29.98 in 10.0 mi Calm Calm - N/A   Overcast
9:56 AM 39.0 °F 36.8 °F 34.0 °F 82% 30.07 in 10.0 mi Variable 3.5 mph - N/A   Mostly Cloudy
10:42 AM 39.2 °F 37.0 °F 35.6 °F 87% 30.00 in 10.0 mi Variable 3.5 mph - N/A   Overcast
10:52 AM 41.0 °F 39.0 °F 35.6 °F 81% 30.00 in 10.0 mi Variable 3.5 mph - N/A   Overcast
10:56 AM 39.9 °F - 35.1 °F 83% 30.09 in 10.0 mi Calm Calm - N/A   Overcast
11:11 AM 42.8 °F 40.1 °F 37.4 °F 81% 30.01 in 10.0 mi Variable 4.6 mph - N/A   Mostly Cloudy
11:48 AM 42.8 °F - 37.4 °F 81% 30.02 in 10.0 mi Calm Calm - N/A   Mostly Cloudy
11:56 AM 44.1 °F - 37.0 °F 76% 30.09 in 10.0 mi Calm Calm - N/A   Overcast
12:56 PM 44.1 °F - 36.0 °F 73% 30.09 in 10.0 mi Calm Calm - N/A   Overcast
1:56 PM 45.0 °F 43.5 °F 36.0 °F 71% 30.09 in 10.0 mi Variable 3.5 mph - N/A   Mostly Cloudy
2:56 PM 43.0 °F - 36.0 °F 76% 30.10 in 10.0 mi Calm Calm - 0.00 in Rain Light Rain
3:56 PM 42.1 °F 39.2 °F 35.1 °F 76% 30.12 in 10.0 mi Variable 4.6 mph - 0.00 in   Mostly Cloudy
4:06 PM 42.8 °F 41.1 °F 35.6 °F 76% 30.05 in 10.0 mi Variable 3.5 mph - N/A   Overcast
4:56 PM 43.0 °F - 35.1 °F 74% 30.13 in 10.0 mi Calm Calm - N/A   Mostly Cloudy
5:56 PM 39.9 °F - 35.1 °F 83% 30.15 in 10.0 mi Calm Calm - N/A   Scattered Clouds
6:56 PM 39.0 °F - 35.1 °F 86% 30.18 in 10.0 mi Calm Calm - N/A   Overcast
7:27 PM 39.2 °F - 35.6 °F 87% 30.10 in 10.0 mi Calm Calm - N/A   Overcast
7:36 PM 39.2 °F - 35.6 °F 87% 30.10 in 10.0 mi Calm Calm - N/A   Overcast
7:56 PM 39.0 °F - 36.0 °F 89% 30.20 in 10.0 mi Calm Calm - N/A   Overcast
8:26 PM 37.4 °F - 35.6 °F 93% 30.11 in 10.0 mi Calm Calm - N/A   Overcast
8:56 PM 36.0 °F - 33.1 °F 89% 30.21 in 9.0 mi Calm Calm - N/A   Mostly Cloudy
9:06 PM 37.4 °F - 33.8 °F 87% 30.12 in 6.0 mi Calm Calm - N/A   Mostly Cloudy
9:17 PM 37.4 °F - 33.8 °F 87% 30.12 in 1.5 mi Calm Calm - N/A   Overcast
9:22 PM 37.4 °F - 33.8 °F 87% 30.12 in 0.8 mi Calm Calm - N/A   Overcast
9:56 PM 36.0 °F - 34.0 °F 93% 30.23 in 1.2 mi Calm Calm - N/A   Overcast
9:59 PM 35.6 °F - 33.8 °F 93% 30.14 in 2.0 mi Calm Calm - N/A   Overcast
10:08 PM 35.6 °F - 33.8 °F 93% 30.14 in 4.0 mi Calm Calm - N/A   Overcast
10:42 PM 33.8 °F 30.8 °F 30.2 °F 87% 30.15 in 10.0 mi ENE 3.5 mph - N/A   Overcast
10:56 PM 34.0 °F - 30.9 °F 89% 30.24 in 8.0 mi Calm Calm - N/A   Overcast
11:22 PM 33.8 °F - 30.2 °F 87% 30.17 in 7.0 mi Calm Calm - N/A   Overcast
11:33 PM 33.8 °F - 30.2 °F 87% 30.17 in 10.0 mi Calm Calm - N/A   Overcast
11:56 PM 34.0 °F - 30.0 °F 85% 30.25 in 10.0 mi Calm Calm - N/A   Overcast